Houston Hull, TX

8:52 PM CST on December 14, 2019 (GMT -0600)
Sugar Land Municipal-Hull

Weather History for KSGR - October, 2019

Change the Weather History Date:

Thursday, October 31, 2019

  Actual Average Record
Temperature  
Mean Temperature 47 °F -  
Max Temperature 57 °F 77 °F 90 °F (1947)
Min Temperature 39 °F 56 °F 30 °F (1993)
Degree Days  
Heating Degree Days 18    
Moisture  
Dew Point 34 °F    
Average Humidity 67    
Maximum Humidity 90    
Minimum Humidity 37    
Precipitation  
Precipitation 0.00 in - - ()
Sea Level Pressure  
Sea Level Pressure 30.34 in    
Wind  
Wind Speed 15 mph (NNW)    
Max Wind Speed 22 mph    
Max Gust Speed 32 mph    
Visibility 10 miles    
Events      
Averages and records for this station are not official NWS values.
T = Trace of Precipitation, MM = Missing Value Source: NWS Daily Summary

Daily Weather History Graph

Daily Weather History Graph

Search for Another Location

Airport or City:

Astronomy

Oct. 31, 2019 Rise Set
Actual Time 7:35 AM CDT 6:36 PM CDT
Civil Twilight 7:10 AM CDT 7:01 PM CDT
Nautical Twilight 6:42 AM CDT 7:29 PM CDT
Astronomical Twilight 6:14 AM CDT 7:57 PM CDT
Moon 11:12 AM CDT (10/31) 9:46 PM CDT (10/31)
Length of Visible Light 11h 50m
Length of Day
11h 01m
Waxing Crescent, 16% of the Moon is Illuminated
Oct 31
Waxing Crescent
Nov 4
First Quarter
Nov 12
Full
Nov 19
Last Quarter
Nov 26
New

Hourly Weather History & Observations

Time (CDT) Temp. Windchill Dew Point Humidity Pressure Visibility Wind Dir Wind Speed Gust Speed Precip Events Conditions
12:39 AM 45.0 °F 37.6 °F 42.1 °F 90% 30.18 in 10.0 mi North 17.3 mph 32.2 mph N/A   Overcast
12:53 AM 45.0 °F 38.2 °F 42.1 °F 90% 30.19 in 10.0 mi North 15.0 mph 27.6 mph N/A   Overcast
1:53 AM 45.0 °F 38.5 °F 41.0 °F 86% 30.22 in 10.0 mi NNW 13.8 mph 25.3 mph N/A   Overcast
2:53 AM 43.0 °F 35.7 °F 37.9 °F 82% 30.25 in 10.0 mi NNW 15.0 mph 26.5 mph N/A   Mostly Cloudy
3:44 AM 42.1 °F 33.6 °F 37.0 °F 82% 30.25 in 10.0 mi NNW 18.4 mph 23.0 mph N/A   Scattered Clouds
3:53 AM 42.1 °F 34.9 °F 37.0 °F 82% 30.26 in 10.0 mi NNW 13.8 mph 24.2 mph N/A   Partly Cloudy
4:53 AM 41.0 °F 32.5 °F 35.1 °F 79% 30.27 in 10.0 mi NNW 17.3 mph 23.0 mph N/A   Clear
5:53 AM 39.9 °F 31.8 °F 33.1 °F 77% 30.30 in 10.0 mi NNW 15.0 mph 24.2 mph N/A   Clear
6:53 AM 39.0 °F 30.6 °F 33.1 °F 79% 30.33 in 10.0 mi NNW 15.0 mph 26.5 mph N/A   Clear
7:53 AM 39.0 °F 31.4 °F 33.1 °F 79% 30.35 in 10.0 mi NNW 12.7 mph 19.6 mph N/A   Clear
8:53 AM 41.0 °F 32.2 °F 32.0 °F 70% 30.39 in 10.0 mi North 18.4 mph 23.0 mph N/A   Clear
9:53 AM 44.1 °F 36.5 °F 32.0 °F 63% 30.41 in 10.0 mi North 17.3 mph 29.9 mph N/A   Clear
10:53 AM 46.9 °F - 30.9 °F 54% 30.41 in 10.0 mi NNW 21.9 mph 31.1 mph N/A   Clear
11:53 AM 50.0 °F - 32.0 °F 50% 30.42 in 10.0 mi North 15.0 mph - N/A   Clear
12:53 PM 52.0 °F - 32.0 °F 47% 30.40 in 10.0 mi NNW 12.7 mph 23.0 mph N/A   Clear
1:53 PM 55.0 °F - 30.0 °F 38% 30.37 in 10.0 mi NNW 18.4 mph 24.2 mph N/A   Clear
2:53 PM 55.9 °F - 30.0 °F 37% 30.35 in 10.0 mi North 18.4 mph 25.3 mph N/A   Clear
3:53 PM 55.9 °F - 30.0 °F 37% 30.35 in 10.0 mi North 15.0 mph 26.5 mph N/A   Clear
4:53 PM 55.9 °F - 30.9 °F 39% 30.35 in 10.0 mi NNW 11.5 mph - N/A   Clear
6:53 PM 48.0 °F - 30.0 °F 50% 30.37 in 10.0 mi NNW 9.2 mph - N/A   Clear
7:53 PM 45.0 °F 41.8 °F 32.0 °F 60% 30.39 in 10.0 mi NNW 5.8 mph - N/A   Clear
8:53 PM 43.0 °F 40.3 °F 35.1 °F 74% 30.40 in 10.0 mi NNW 4.6 mph - N/A   Clear
9:53 PM 42.1 °F 40.2 °F 34.0 °F 73% 30.41 in 10.0 mi NW 3.5 mph - N/A   Clear
10:53 PM 41.0 °F 39.0 °F 34.0 °F 76% 30.41 in 10.0 mi NNW 3.5 mph - N/A   Clear
11:53 PM 41.0 °F 38.0 °F 33.1 °F 73% 30.40 in 10.0 mi WNW 4.6 mph - N/A   Clear